{"data":{"norad_id":59636,"intl_designator":"2024-082F","name":"STARLINK-31802","alt_names":[],"object_type":"PAYLOAD","status":"ACTIVE","operator":null,"country":"US","launch_date":"2024-05-03","launch_site_code":"AFETR","launch_vehicle":null,"mission":null,"orbit_class":"UNKNOWN","rcs_meters":null,"size_class":null,"mass_kg":null,"dimensions":null,"purposes":["comms"],"wikipedia_slug":null,"has_3d_model":false,"image_url":null,"decayed_at":null,"tle_current":{"epoch":"2026-05-25T02:10:18.880320Z","epoch_age_seconds":74002,"freshness":"FRESH","line1":"1 59636U 24082F   26145.09049630  .00000812  00000+0  39051-4 0  9996","line2":"2 59636  43.0041  68.5853 0001302 292.9146  67.1568 15.27572348116495","mean_motion":15.27572348,"eccentricity":0.0001302,"inclination_deg":43.0041,"raan_deg":68.5853,"arg_perigee_deg":292.9146,"mean_anomaly_deg":67.1568,"bstar":3.9051e-5,"rev_number":11649,"period_min":94.26722091987,"perigee_km":482.17867956312,"apogee_km":483.96533838906,"semimajor_km":6861.2090089761,"source":"CELESTRAK","updated_at":"2026-05-25T13:38:19.013635Z"}}}